Location: Stull Observatory
(42.2506°N, 77.7903°W)
Time: 10:01:28
(UTC-05:00)

Daily predictions for brighter satellites

Satellite Brightness Start Highest point End
(mag) Time Altitude Azimuth Time Altitude Azimuth Time Altitude Azimuth
Atlas Centaur 2 4.4 17:36:19 10° WSW 17:39:28 15° SSW 17:42:18 10° SSE
Cosmos 2219 Rocket 2.4 17:35:35 10° S 17:41:02 52° ESE 17:46:29 10° NNE
Cosmos 371 Rocket 3.7 17:37:16 10° S 17:41:47 43° ESE 17:46:19 10° NNE
COSMO-SKYMED 1 3.4 17:39:21 10° NNE 17:43:14 31° E 17:47:05 10° SSE
Cosmos 2322 Rocket 4.5 17:39:43 10° W 17:43:33 18° NW 17:47:25 10° N
Molniya-1 3.9 17:41:43 10° SW 17:44:21 86° ESE 17:49:00 10° NE
YAOGAN 1 2.5 17:40:11 10° SSE 17:44:31 82° ENE 17:48:53 10° N
Cosmos 990 Rocket 4.4 17:39:50 10° NNW 17:45:05 73° WSW 17:50:19 10° S
CZ-4 R/B 4.4 17:42:12 10° SSE 17:46:19 65° ENE 17:50:26 10° N
Thor Agena Rocket 3.6 17:41:53 10° NNE 17:47:10 74° ESE 17:52:20 10° S
Cosmos 1125 Rocket 3.8 17:42:17 10° N 17:47:16 43° ENE 17:52:11 10° SE
Cosmos 2278 Rocket 2.6 17:42:15 10° NNW 17:47:37 41° ENE 17:52:57 10° SE
Cosmos 2058 4.1 17:44:55 10° SE 17:48:02 21° E 17:51:10 10° NE
SPOT 3 Rocket 3.6 17:42:57 10° SSE 17:48:06 90° ENE 17:53:18 10° NNW
BREEZE-M DEB (TANK) 4.1 17:46:33 10° WNW 17:50:48 49° SW 17:56:16 10° SE
SMAP 3.4 17:47:23 10° S 17:52:01 73° WSW 17:56:41 10° NNW
USA 116 3.5 17:49:01 10° N 17:52:14 67° WNW 17:55:18 10° SSW
Cosmos 2228 Rocket 3.1 17:48:12 10° N 17:52:38 89° E 17:57:05 10° S
Cosmos 1908 4.1 17:53:45 10° NNW 17:57:34 55° W 18:01:22 10° S
Cosmos 1844 3.7 17:53:36 10° NNW 17:59:24 84° ENE 18:05:12 10° SSE
Cosmos 1626 4.1 17:58:26 10° ESE 17:59:17 11° E 17:59:17 11° E
Cosmos 841 Rocket 3.7 17:55:53 10° SSW 18:01:10 79° WNW 18:06:28 10° NNE
Cosmos 44 Rocket 3.4 17:56:24 10° SSW 18:01:31 72° ESE 18:06:33 10° NE
Cosmos 1340 Rocket 4.0 17:59:06 10° SE 18:02:12 22° E 18:05:16 10° NE
Cosmos 1674 3.6 17:58:29 10° SSW 18:02:13 53° W 18:06:00 10° N
CENTAUR R/B 3.0 17:57:39 10° SW 18:03:42 61° NW 18:10:35 10° NNE
Cosmos 2346 Rocket 4.5 17:57:58 10° S 18:04:13 81° E 18:10:28 10° N
IDEFIX/ARIANE 42P 3.7 18:01:22 10° S 18:06:23 49° W 18:11:28 10° NNW
SL-14 R/B 3.5 18:04:43 10° SSE 18:08:29 47° E 18:12:18 10° NNE
Lacrosse 5 3.8 18:05:53 10° WNW 18:09:33 20° NNW 18:13:13 10° NNE
DNEPR-1 R/B 4.5 18:04:29 10° SSW 18:11:31 79° ESE 18:17:14 10° NE
COSMOS 2428 3.6 18:06:53 10° SW 18:12:26 51° WNW 18:18:00 10° NNE
Cosmos 2237 Rocket 2.3 18:07:38 10° S 18:13:07 58° ESE 18:18:40 10° NNE
Cosmos 1484 Rocket 2.8 18:09:16 10° SSE 18:13:11 89° WSW 18:17:11 10° NNW
CZ-2C R/B 4.1 18:10:56 10° SSW 18:15:34 38° W 18:20:07 10° NNW
Cosmos 1743 Rocket 4.2 18:11:10 10° SSW 18:15:35 59° W 18:20:02 10° N
Cosmos 1726 2.0 18:11:59 10° N 18:15:45 72° E 18:19:31 10° SSE
SL-16 R/B 3.1 18:14:01 10° SSE 18:18:41 27° ESE 18:21:40 18° ENE
Cosmos 2151 2.9 18:14:45 10° S 18:18:54 67° E 18:23:05 10° NNE
Cosmos 1300 2.6 18:15:40 10° N 18:19:31 78° E 18:23:20 10° SSE
Cosmos 304 Rocket 4.4 18:21:10 10° SSE 18:25:29 34° ESE 18:28:10 20° NE
Cosmos 1515 Rocket 4.4 18:22:58 10° NNW 18:27:20 54° W 18:31:40 10° S
Cosmos 2297 4.1 18:22:26 10° NNW 18:27:49 41° ENE 18:33:11 10° SE
Aureole 2 Rocket 2.8 18:27:39 10° S 18:31:12 51° ESE 18:33:25 23° NE
SKYMED 2 3.7 18:27:06 10° N 18:31:27 78° WNW 18:35:47 10° SSW
Cosmos 1151 Rocket 3.3 18:28:22 10° NNW 18:32:38 70° W 18:36:53 10° S
Cosmos 1805 Rocket 3.9 18:30:32 10° SSE 18:34:45 44° E 18:38:22 14° NNE
BREEZE M DEB (TANK) 1.0 18:34:18 10° WNW 18:36:54 63° NNE 18:37:00 62° NE
Lacrosse 5 rocket 1.1 18:34:47 10° NW 18:38:33 61° NE 18:40:18 30° ESE
Abrixas 2.8 18:36:42 10° SW 18:39:31 46° SSE 18:39:46 44° SE
Meteor 1-28 Rocket 3.3 18:40:31 10° N 18:44:14 75° WNW 18:47:56 10° SSW
Meteor 1-11 4.2 18:40:39 10° S 18:46:19 88° W 18:52:07 10° N
Cosmos 372 Rocket 4.2 18:49:32 10° NNW 18:54:37 68° WSW 18:59:40 10° S
Sich 1 3.2 18:52:19 10° SSE 18:56:36 49° E 18:57:08 46° ENE
Cosmos 1980 4.3 18:55:15 10° SW 19:00:49 55° WNW 19:06:11 11° NNE
Cosmos 1633 Rocket 3.3 18:56:52 10° SSE 19:00:37 46° ESE 19:00:37 46° ESE
FengYun 1-2 T 4.2 18:56:51 10° SSE 19:02:19 61° ENE 19:07:47 10° N
Lacrosse 4 Rocket 3.6 18:59:50 10° N 19:00:22 12° N 19:00:22 12° N
Cosmos 540 Rocket 4.3 19:00:52 10° SW 19:05:52 48° WNW 19:10:53 10° N
FENGYUN 3A 3.6 19:00:47 10° SSE 19:06:01 61° ENE 19:11:20 10° N
SJ-6B 3.2 19:04:19 10° S 19:08:21 68° W 19:12:28 10° NNW
USA 215 3.4 19:01:55 10° SE 19:08:26 75° SW 19:15:00 10° NW
ALOS 2.1 19:04:25 10° SSE 19:09:01 66° ENE 19:13:40 10° N
OTV 4 3.0 19:07:38 10° WSW 19:09:33 16° SSW 19:09:45 16° SSW
Cosmos 44 4.2 19:05:42 10° SW 19:10:46 49° NW 19:13:37 24° NNE
Cosmos 2333 Rocket 3.5 19:10:32 10° SW 19:15:43 36° WNW 19:20:56 10° N
Resurs 01 Rocket 1.5 19:17:34 73° NE 19:17:34 73° NE 19:21:47 10° N
Cosmos 1461 3.0 19:14:39 10° SSW 19:18:17 64° S 19:18:17 64° S
ATLAS 5 CENTAUR R/B 4.3 19:16:42 10° N 19:18:03 12° NNE 19:18:03 12° NNE
Cosmos 1703 4.0 19:16:36 10° SSW 19:20:25 52° W 19:21:52 33° NNW
Cosmos 1707 Rocket 3.9 19:18:24 10° NNW 19:22:42 64° W 19:26:59 10° S
Cosmos 2219 Rocket 4.1 19:20:40 10° WSW 19:25:16 25° NW 19:29:54 10° N
Cosmos 2278 Rocket 4.1 19:26:40 10° NW 19:31:31 30° WSW 19:36:22 10° SSW
Cosmos 1666 Rocket 4.0 19:29:18 10° SSW 19:33:34 59° W 19:34:05 54° NW
Cosmos 1626 3.3 19:30:59 10° SSW 19:34:03 41° WSW 19:34:03 41° WSW
Spot 2 Rocket 3.6 19:32:31 10° S 19:37:33 73° WSW 19:42:36 10° NNW
Cosmos 1538 Rocket 4.4 19:42:49 10° SSW 19:48:01 60° WNW 19:48:47 54° NNW
USA 229 DEB 3.7 19:43:20 10° SSW 19:49:29 64° SSE 19:49:29 64° SSE
USA 229 3.7 19:43:26 10° SSW 19:49:32 63° SSE 19:49:32 63° SSE
Lacrosse 5 4.2 19:51:19 10° NNW 19:52:57 14° NNW 19:52:57 14° NNW
Cosmos 2237 Rocket 4.2 19:53:08 10° WSW 19:57:34 23° NW 20:01:05 14° N
Aureole 1 Rocket 4.1 19:57:04 10° SSW 20:01:10 58° SW 20:01:10 58° SW
SL-16 R/B 3.1 19:57:09 10° SW 20:02:32 44° WNW 20:03:37 40° NNW
Cosmos 2369 Rocket 4.4 19:57:30 10° N 19:58:24 14° N 19:58:24 14° N
Lacrosse 5 rocket 4.2 20:14:56 10° W 20:16:05 14° W 20:16:05 14° W
